Regional Weather Roundup
Issued by NWS Goodland, KS

Home | Current Version | Previous Version | Text Only | Print | Product List | Glossary Off
Versions: 1 2 3 4 5 6 7 8 9 10 11 12 13 14 15 16 17 18 19 20 21 22 23 24 25 26 27 28 29 30 31 32 33 34 35 36 37 38 39 40 41 42 43 44 45 46 47 48 49 50

577
ASUS43 KGLD 240159
RWRGLD

GOODLAND FORECAST AREA HOURLY WEATHER ROUNDUP
NATIONAL WEATHER SERVICE GOODLAND KS
800 PM MDT MON MAY 23 2016

...OFFICIAL OBSERVATIONS...

CITY           SKY/WX    TMP DP  RH WIND       PRES   REMARKS
GOODLAND KS    CLEAR     67  51  56 SE3       29.81R
HILL CITY KS   CLEAR     73  64  73 S5        29.76R
IMPERIAL NEB   PTCLDY    69  46  43 E3        29.83R
MCCOOK NEB     CLEAR     69  50  50 N3        29.78R
AKRON CO       PTCLDY    57  46  66 NE10      29.87R
BURLINGTON CO  CLEAR     63  48  58 E9        29.83R
LIMON CO       PTCLDY    60  44  55 N7        29.86R
$$

...UNOFFICIAL OBSERVATIONS...

CITY           SKY/WX    TMP DP  RH WIND       PRES   REMARKS
COLBY KS       CLEAR     68  61  77 NE5       29.81R
LENORA KS        N/A     73  32  22 MISG        N/A
NORTON KS      HAZE      72  57  60 CALM      29.76S VSB 1/2
SHARON SPRINGS   N/A     71  57  61 E7          N/A
KIT CARSON CO    N/A     71  48  43 MISG        N/A
YUMA CO          N/A     58  49  73 E8          N/A
$$




USA.gov is the U.S. government's official web portal to all federal, state and local government web resources and services.